weather.gov     
National Weather Service

Terminal Aerodrome Forecast
NWS Homepage
This page is being discontinued on March 12, 2014.
The same data is available at this site. Please update your bookmarks.
Thank you, and we apologize for the inconvenience.
Please send an email to SR-SRH.Webmaster@noaa.gov with any concerns.


Current Version
Previous Version:    01  02  03  04  05  06  07  08  09  10  11  12  13  14  15  16  17  18  19  20  21  22  23  
[Printable]
217
FTUS45 KMSO 301124
TAFGPI
TAF
KGPI 301124Z 3012/3112 00000KT 1SM BR BKN005
      TEMPO 3012/3016 1/4SM FG VV002
     FM301600 00000KT P6SM VCFG FEW001 SCT120 OVC150
     FM301800 08005KT P6SM SCT120 OVC150
     FM310400 00000KT 4SM BR SCT001=




217
FTUS45 KMSO 301124
TAFGPI
TAF
KGPI 301124Z 3012/3112 00000KT 1SM BR BKN005
      TEMPO 3012/3016 1/4SM FG VV002
     FM301600 00000KT P6SM VCFG FEW001 SCT120 OVC150
     FM301800 08005KT P6SM SCT120 OVC150
     FM310400 00000KT 4SM BR SCT001=


U.S. Dept. of Commerce
NOAA National Weather Service
1325 East West Highway
Silver Spring, MD 20910
E-mail: w-nws.webmaster@noaa.gov
Page last modified: May 16, 2007
NATIONAL WEATHER SERVICE: for Safety, for Work, for Fun - FOR LIFE